OneWeb SL0238

operational
NORAD ID: 48784 Int'l Des: 2021-045 Owner: ONEWEBN Country: UK Constellation: oneweb
LEOCIRCULARPOLARONEWEB_TYPE

About OneWeb SL0238

Description loading...

Live Position

Loading 3D Globe...

Upcoming Passes

Altitude History

Altitude vs Time

uPlot chart will show altitude changes over time

Two-Line Element Set

1 48784U 21045T 25258.59476098 .00000005 00000-0 -20127-4 0 9995
2 48784 87.9026 313.9667 0002171 105.1444 254.9926 13.15549152208272
Epoch: Sep 15, 2025 • Age: 12 hours

Current Status

Altitude 1203.7 km
Velocity 7.25 km/s
Sub-Earth Point 24.50°N, 107.43°E
Launch Date May 28, 2021
Age 4.3 years
Type internet

Technical Details

Classification Payload
Mass 148.00 kg
Dry Mass 140.00 kg
Total Mass 148.00 kg
Length 1.30 m
Diameter 1.00 m
Span 5.00 m
Shape Trapezoid+2 pan
Manufacturer ONEWUS
Bus Type ARROW
Phase Status In Orbit
Owner/State ONEWEBN/UK

Large Constellations

Loading constellations...